Location: Bayshore Village Mobile Home Park
(26.6945°N, 81.8642°W)
Time: 22:33:23
(UTC+00:00)

PAYLOAD A - Pass Details

Date: 17 June 2021
Orbit: 692 x 831 km, 98.4° (Epoch: 31 July)

Event Time Altitude Azimuth Distance (km) Brightness Sun altitude
Rises 08:49:53 0° 15° (NNE) 3,206 8.1 -20.2°
Reaches altitude 10° 08:52:09 10° 17° (NNE) 2,299 7.3 -19.8°
Maximum altitude 08:57:14 72° 102° (ESE) 824 4.2 -18.9°
Enters shadow 09:00:58 20° 184° (S) 1,793 5.5 -18.3°
